Wetterdaten: Dienstag, 13.10.2015
Datum Zeit Auen-Temp. Temp gefhlt Luftfeuchte Luftdruck Regen Wind Richtung Richtung Taupunkt Windben
13.10.2015 00:00 4,6 C 4,6 C 90 % 1013,6 hPa 0,0 mm 0,0 km/h (0 Bft) NW 315 3,1 C 0,0 km/h (0 Bft)
13.10.2015 00:05 4,6 C 4,6 C 90 % 1013,6 hPa 0,0 mm 0,0 km/h (0 Bft) SW 225 3,1 C 0,0 km/h (0 Bft)
13.10.2015 00:10 4,6 C 4,7 C 90 % 1013,5 hPa 0,0 mm 0,0 km/h (0 Bft) W-SW 247 3,1 C 0,0 km/h (0 Bft)
13.10.2015 00:15 4,6 C 4,6 C 90 % 1013,5 hPa 0,0 mm 0,0 km/h (0 Bft) S-SW 202 3,1 C 0,0 km/h (0 Bft)
13.10.2015 00:20 4,6 C 4,6 C 90 % 1013,5 hPa 0,0 mm 0,8 km/h (0 Bft) W-SW 247 3,1 C 4,7 km/h (1 Bft)
13.10.2015 00:25 4,6 C 4,6 C 90 % 1013,5 hPa 0,0 mm 0,8 km/h (0 Bft) W 270 3,1 C 0,0 km/h (0 Bft)
13.10.2015 00:30 4,6 C 4,6 C 90 % 1013,6 hPa 0,0 mm 0,5 km/h (0 Bft) SW 225 3,1 C 5,4 km/h (1 Bft)
13.10.2015 00:35 4,6 C 4,6 C 90 % 1013,6 hPa 0,0 mm 0,0 km/h (0 Bft) W-SW 247 3,1 C 0,0 km/h (0 Bft)
13.10.2015 00:40 4,5 C 4,6 C 90 % 1013,6 hPa 0,0 mm 0,0 km/h (0 Bft) W 270 3,0 C 0,0 km/h (0 Bft)
13.10.2015 00:45 4,5 C 4,5 C 90 % 1013,6 hPa 0,0 mm 0,0 km/h (0 Bft) NW 315 3,0 C 0,0 km/h (0 Bft)
13.10.2015 00:50 4,4 C 4,4 C 90 % 1013,4 hPa 0,0 mm 0,0 km/h (0 Bft) SW 225 2,9 C 0,0 km/h (0 Bft)
13.10.2015 00:55 4,4 C 4,4 C 90 % 1013,4 hPa 0,0 mm 0,3 km/h (0 Bft) S-SW 202 2,9 C 0,0 km/h (0 Bft)
13.10.2015 01:00 4,4 C 4,4 C 90 % 1013,4 hPa 0,0 mm 0,3 km/h (0 Bft) S-SW 202 2,9 C 0,0 km/h (0 Bft)
13.10.2015 01:05 4,4 C 4,4 C 90 % 1013,4 hPa 0,0 mm 0,0 km/h (0 Bft) S-SW 202 2,9 C 0,0 km/h (0 Bft)
13.10.2015 01:10 4,4 C 4,4 C 90 % 1013,5 hPa 0,0 mm 1,0 km/h (0 Bft) W 270 2,9 C 4,1 km/h (1 Bft)
13.10.2015 01:15 4,4 C 4,4 C 90 % 1013,5 hPa 0,0 mm 1,3 km/h (1 Bft) W 270 2,9 C 0,0 km/h (0 Bft)
13.10.2015 01:20 4,4 C 4,4 C 90 % 1013,5 hPa 0,0 mm 0,3 km/h (0 Bft) W 270 2,9 C 6,5 km/h (2 Bft)
13.10.2015 01:25 4,4 C 4,4 C 90 % 1013,5 hPa 0,0 mm 0,0 km/h (0 Bft) W 270 2,9 C 0,0 km/h (0 Bft)
13.10.2015 01:30 4,4 C 4,4 C 90 % 1013,2 hPa 0,0 mm 0,5 km/h (0 Bft) W-NW 292 2,9 C 0,0 km/h (0 Bft)
13.10.2015 01:35 4,4 C 4,3 C 90 % 1013,2 hPa 0,0 mm 0,5 km/h (0 Bft) NW 315 2,9 C 3,6 km/h (1 Bft)
13.10.2015 01:40 4,4 C 4,3 C 93 % 1013,2 hPa 0,0 mm 0,5 km/h (0 Bft) N-NO 22 3,4 C 0,0 km/h (0 Bft)
13.10.2015 01:45 4,4 C 4,3 C 93 % 1013,2 hPa 0,0 mm 0,3 km/h (0 Bft) NW 315 3,4 C 0,0 km/h (0 Bft)
13.10.2015 01:50 4,3 C 4,3 C 90 % 1013,0 hPa 0,0 mm 0,0 km/h (0 Bft) O-SO 112 2,8 C 0,0 km/h (0 Bft)
13.10.2015 01:55 4,3 C 4,2 C 90 % 1013,0 hPa 0,0 mm 0,5 km/h (0 Bft) O-NO 67 2,8 C 0,0 km/h (0 Bft)
13.10.2015 02:00 4,3 C 4,2 C 90 % 1013,0 hPa 0,0 mm 0,8 km/h (0 Bft) O 90 2,8 C 0,0 km/h (0 Bft)
13.10.2015 02:05 4,3 C 4,2 C 93 % 1013,0 hPa 0,0 mm 0,5 km/h (0 Bft) O-SO 112 3,3 C 2,6 km/h (1 Bft)
13.10.2015 02:10 4,2 C 4,2 C 90 % 1013,2 hPa 0,0 mm 0,8 km/h (0 Bft) O-SO 112 2,7 C 3,4 km/h (1 Bft)
13.10.2015 02:15 4,2 C 4,2 C 90 % 1013,2 hPa 0,0 mm 0,8 km/h (0 Bft) O-SO 112 2,7 C 0,0 km/h (0 Bft)
13.10.2015 02:20 4,2 C 4,2 C 90 % 1013,2 hPa 0,0 mm 0,5 km/h (0 Bft) O-SO 112 2,7 C 0,0 km/h (0 Bft)
13.10.2015 02:25 4,2 C 4,1 C 90 % 1013,2 hPa 0,0 mm 0,3 km/h (0 Bft) SO 135 2,7 C 0,0 km/h (0 Bft)
13.10.2015 02:30 4,2 C 4,1 C 90 % 1012,9 hPa 0,0 mm 0,0 km/h (0 Bft) O-SO 112 2,7 C 0,0 km/h (0 Bft)
13.10.2015 02:35 4,2 C 4,1 C 90 % 1012,9 hPa 0,0 mm 0,0 km/h (0 Bft) O-SO 112 2,7 C 0,0 km/h (0 Bft)
13.10.2015 02:40 4,2 C 4,1 C 90 % 1012,9 hPa 0,0 mm 0,0 km/h (0 Bft) N-NW 337 2,7 C 0,0 km/h (0 Bft)
13.10.2015 02:45 4,3 C 4,2 C 90 % 1012,9 hPa 0,0 mm 0,0 km/h (0 Bft) W-NW 292 2,8 C 0,0 km/h (0 Bft)
13.10.2015 02:50 4,3 C 4,2 C 90 % 1012,8 hPa 0,0 mm 0,0 km/h (0 Bft) NW 315 2,8 C 0,0 km/h (0 Bft)
13.10.2015 02:55 4,3 C 4,2 C 90 % 1012,8 hPa 0,0 mm 0,0 km/h (0 Bft) NW 315 2,8 C 0,0 km/h (0 Bft)
13.10.2015 03:00 4,3 C 4,2 C 90 % 1012,8 hPa 0,0 mm 0,0 km/h (0 Bft) W 270 2,8 C 0,0 km/h (0 Bft)
13.10.2015 03:05 4,3 C 4,3 C 90 % 1012,8 hPa 0,0 mm 0,0 km/h (0 Bft) N 360 2,8 C 0,0 km/h (0 Bft)
13.10.2015 03:10 4,3 C 4,3 C 90 % 1012,7 hPa 0,0 mm 0,0 km/h (0 Bft) W-NW 292 2,8 C 0,0 km/h (0 Bft)
13.10.2015 03:15 4,3 C 4,3 C 90 % 1012,7 hPa 0,0 mm 0,0 km/h (0 Bft) W-SW 247 2,8 C 0,0 km/h (0 Bft)
13.10.2015 03:20 4,4 C 4,3 C 90 % 1012,7 hPa 0,0 mm 0,0 km/h (0 Bft) N-NW 337 2,9 C 0,0 km/h (0 Bft)
13.10.2015 03:25 4,4 C 4,3 C 90 % 1012,7 hPa 0,0 mm 0,3 km/h (0 Bft) W 270 2,9 C 2,8 km/h (1 Bft)
13.10.2015 03:30 4,4 C 4,4 C 90 % 1012,8 hPa 0,0 mm 0,3 km/h (0 Bft) W 270 2,9 C 0,0 km/h (0 Bft)
13.10.2015 03:35 4,5 C 4,4 C 90 % 1012,8 hPa 0,0 mm 0,3 km/h (0 Bft) W-NW 292 3,0 C 0,0 km/h (0 Bft)
13.10.2015 03:40 4,5 C 4,5 C 90 % 1012,8 hPa 0,0 mm 0,0 km/h (0 Bft) W-NW 292 3,0 C 0,0 km/h (0 Bft)
13.10.2015 03:45 4,5 C 4,5 C 90 % 1012,8 hPa 0,0 mm 0,0 km/h (0 Bft) N-NO 22 3,0 C 0,0 km/h (0 Bft)
13.10.2015 03:50 4,5 C 4,5 C 90 % 1012,7 hPa 0,0 mm 0,0 km/h (0 Bft) NW 315 3,0 C 0,0 km/h (0 Bft)
13.10.2015 03:55 4,5 C 4,5 C 90 % 1012,7 hPa 0,0 mm 0,0 km/h (0 Bft) W 270 3,0 C 0,0 km/h (0 Bft)
13.10.2015 04:00 4,5 C 4,5 C 90 % 1012,7 hPa 0,0 mm 0,0 km/h (0 Bft) W 270 3,0 C 0,0 km/h (0 Bft)
13.10.2015 04:05 4,5 C 4,6 C 90 % 1012,7 hPa 0,0 mm 0,0 km/h (0 Bft) NW 315 3,0 C 0,0 km/h (0 Bft)
13.10.2015 04:10 4,5 C 4,6 C 90 % 1012,5 hPa 0,0 mm 0,0 km/h (0 Bft) N-NO 22 3,0 C 0,0 km/h (0 Bft)
13.10.2015 04:15 4,5 C 4,6 C 90 % 1012,5 hPa 0,0 mm 0,0 km/h (0 Bft) N-NO 22 3,0 C 0,0 km/h (0 Bft)
13.10.2015 04:20 4,5 C 4,6 C 90 % 1012,5 hPa 0,0 mm 0,0 km/h (0 Bft) W-NW 292 3,0 C 0,0 km/h (0 Bft)
13.10.2015 04:25 4,6 C 4,6 C 90 % 1012,5 hPa 0,0 mm 0,0 km/h (0 Bft) W-NW 292 3,1 C 0,0 km/h (0 Bft)
13.10.2015 04:30 4,6 C 4,6 C 91 % 1012,4 hPa 0,0 mm 0,0 km/h (0 Bft) N-NO 22 3,3 C 0,0 km/h (0 Bft)
13.10.2015 04:35 4,6 C 4,6 C 91 % 1012,4 hPa 0,0 mm 0,0 km/h (0 Bft) N-NO 22 3,3 C 0,0 km/h (0 Bft)
13.10.2015 04:40 4,6 C 4,7 C 91 % 1012,4 hPa 0,0 mm 0,0 km/h (0 Bft) O-NO 67 3,3 C 0,0 km/h (0 Bft)
13.10.2015 04:45 4,8 C 4,7 C 93 % 1012,4 hPa 0,0 mm 0,3 km/h (0 Bft) SO 135 3,8 C 0,0 km/h (0 Bft)
13.10.2015 04:50 4,8 C 4,7 C 93 % 1012,4 hPa 0,0 mm 0,3 km/h (0 Bft) S-SW 202 3,8 C 0,0 km/h (0 Bft)
13.10.2015 04:55 4,7 C 4,8 C 90 % 1012,4 hPa 0,0 mm 0,0 km/h (0 Bft) NW 315 3,2 C 0,0 km/h (0 Bft)
13.10.2015 05:00 4,8 C 4,9 C 90 % 1012,4 hPa 0,0 mm 0,3 km/h (0 Bft) W-NW 292 3,3 C 0,0 km/h (0 Bft)
13.10.2015 05:05 4,8 C 4,9 C 90 % 1012,4 hPa 0,0 mm 0,3 km/h (0 Bft) W 270 3,3 C 0,0 km/h (0 Bft)
13.10.2015 05:10 4,8 C 4,9 C 90 % 1012,6 hPa 0,0 mm 0,0 km/h (0 Bft) W 270 3,3 C 0,0 km/h (0 Bft)
13.10.2015 05:16 5,0 C 5,0 C 90 % 1012,6 hPa 0,0 mm 0,0 km/h (0 Bft) W-NW 292 3,5 C 0,0 km/h (0 Bft)
13.10.2015 05:20 5,0 C 5,0 C 90 % 1012,6 hPa 0,0 mm 0,0 km/h (0 Bft) S-SW 202 3,5 C 0,0 km/h (0 Bft)
13.10.2015 05:25 5,0 C 5,0 C 90 % 1012,6 hPa 0,0 mm 0,0 km/h (0 Bft) NW 315 3,5 C 0,0 km/h (0 Bft)
13.10.2015 05:30 5,1 C 5,0 C 93 % 1012,6 hPa 0,0 mm 0,0 km/h (0 Bft) S 180 4,1 C 0,0 km/h (0 Bft)
13.10.2015 05:35 5,1 C 5,1 C 90 % 1012,6 hPa 0,0 mm 0,0 km/h (0 Bft) N-NW 337 3,6 C 0,0 km/h (0 Bft)
13.10.2015 05:40 5,1 C 5,1 C 93 % 1012,6 hPa 0,0 mm 0,0 km/h (0 Bft) NW 315 4,1 C 0,0 km/h (0 Bft)
13.10.2015 05:45 5,2 C 5,3 C 90 % 1012,6 hPa 0,0 mm 0,0 km/h (0 Bft) S-SO 157 3,7 C 0,0 km/h (0 Bft)
13.10.2015 05:50 5,4 C 5,5 C 91 % 1012,6 hPa 0,0 mm 0,5 km/h (0 Bft) W-SW 247 4,1 C 0,0 km/h (0 Bft)
13.10.2015 05:55 5,4 C 5,4 C 94 % 1012,6 hPa 0,0 mm 0,5 km/h (0 Bft) NW 315 4,5 C 0,0 km/h (0 Bft)
13.10.2015 06:00 5,4 C 5,4 C 94 % 1012,6 hPa 0,0 mm 0,0 km/h (0 Bft) N-NW 337 4,5 C 0,0 km/h (0 Bft)
13.10.2015 06:05 5,3 C 5,3 C 94 % 1012,6 hPa 0,0 mm 0,0 km/h (0 Bft) S 180 4,4 C 0,0 km/h (0 Bft)
13.10.2015 06:10 5,3 C 5,4 C 91 % 1012,3 hPa 0,0 mm 0,0 km/h (0 Bft) N-NW 337 4,0 C 0,0 km/h (0 Bft)
13.10.2015 06:15 5,4 C 5,4 C 94 % 1012,3 hPa 0,0 mm 0,0 km/h (0 Bft) W-NW 292 4,5 C 0,0 km/h (0 Bft)
13.10.2015 06:20 5,4 C 5,4 C 94 % 1012,3 hPa 0,0 mm 0,0 km/h (0 Bft) W-NW 292 4,5 C 0,0 km/h (0 Bft)
13.10.2015 06:25 5,4 C 5,4 C 91 % 1012,3 hPa 0,0 mm 0,0 km/h (0 Bft) N-NW 337 4,1 C 0,0 km/h (0 Bft)
13.10.2015 06:30 5,5 C 5,4 C 94 % 1012,3 hPa 0,0 mm 0,0 km/h (0 Bft) N-NW 337 4,6 C 0,0 km/h (0 Bft)
13.10.2015 06:35 5,5 C 5,4 C 94 % 1012,3 hPa 0,0 mm 0,0 km/h (0 Bft) NW 315 4,6 C 0,0 km/h (0 Bft)
13.10.2015 06:40 5,5 C 5,4 C 94 % 1012,3 hPa 0,0 mm 0,0 km/h (0 Bft) N-NW 337 4,6 C 0,0 km/h (0 Bft)
13.10.2015 06:45 5,5 C 5,5 C 91 % 1012,3 hPa 0,0 mm 0,0 km/h (0 Bft) NW 315 4,2 C 0,0 km/h (0 Bft)
13.10.2015 06:50 5,5 C 5,5 C 91 % 1012,2 hPa 0,0 mm 0,0 km/h (0 Bft) W-NW 292 4,2 C 0,0 km/h (0 Bft)
13.10.2015 06:55 5,6 C 5,5 C 94 % 1012,2 hPa 0,0 mm 0,0 km/h (0 Bft) W-SW 247 4,7 C 0,0 km/h (0 Bft)
13.10.2015 07:00 5,6 C 5,5 C 94 % 1012,2 hPa 0,0 mm 0,0 km/h (0 Bft) NW 315 4,7 C 0,0 km/h (0 Bft)
13.10.2015 07:05 5,6 C 5,6 C 91 % 1012,2 hPa 0,0 mm 0,0 km/h (0 Bft) W-NW 292 4,2 C 0,0 km/h (0 Bft)
13.10.2015 07:12 5,6 C 5,6 C 91 % 1012,2 hPa 0,0 mm 0,0 km/h (0 Bft) W-NW 292 4,2 C 0,0 km/h (0 Bft)
13.10.2015 07:15 5,7 C 5,6 C 94 % 1012,2 hPa 0,0 mm 0,0 km/h (0 Bft) W-NW 292 4,8 C 0,0 km/h (0 Bft)
13.10.2015 07:20 5,7 C 5,7 C 91 % 1012,2 hPa 0,0 mm 0,0 km/h (0 Bft) SW 225 4,3 C 0,0 km/h (0 Bft)
13.10.2015 07:25 5,7 C 5,7 C 91 % 1012,2 hPa 0,0 mm 0,0 km/h (0 Bft) SW 225 4,3 C 0,0 km/h (0 Bft)
13.10.2015 07:30 5,8 C 5,8 C 91 % 1012,4 hPa 0,0 mm 0,0 km/h (0 Bft) SW 225 4,4 C 0,0 km/h (0 Bft)
13.10.2015 07:35 5,8 C 5,9 C 91 % 1012,4 hPa 0,0 mm 0,0 km/h (0 Bft) SW 225 4,4 C 0,0 km/h (0 Bft)
13.10.2015 07:40 5,9 C 5,9 C 91 % 1012,4 hPa 0,0 mm 0,0 km/h (0 Bft) SW 225 4,5 C 0,0 km/h (0 Bft)
13.10.2015 07:45 6,0 C 6,0 C 90 % 1012,4 hPa 0,7 mm 0,0 km/h (0 Bft) W-SW 247 4,5 C 0,0 km/h (0 Bft)
13.10.2015 07:50 6,0 C 6,2 C 90 % 1012,2 hPa 0,0 mm 0,0 km/h (0 Bft) NW 315 4,5 C 0,0 km/h (0 Bft)
13.10.2015 07:55 6,2 C 6,4 C 90 % 1012,2 hPa 0,0 mm 0,0 km/h (0 Bft) W 270 4,7 C 0,0 km/h (0 Bft)
13.10.2015 08:00 6,4 C 6,6 C 90 % 1012,2 hPa 0,0 mm 0,0 km/h (0 Bft) NW 315 4,9 C 0,0 km/h (0 Bft)
13.10.2015 08:05 6,5 C 6,7 C 90 % 1012,2 hPa 0,0 mm 0,0 km/h (0 Bft) NW 315 5,0 C 0,0 km/h (0 Bft)
13.10.2015 08:10 6,6 C 6,9 C 90 % 1011,9 hPa 0,0 mm 0,0 km/h (0 Bft) NW 315 5,1 C 0,0 km/h (0 Bft)
13.10.2015 08:15 6,8 C 6,9 C 90 % 1011,9 hPa 0,0 mm 0,0 km/h (0 Bft) N-NO 22 5,3 C 0,0 km/h (0 Bft)
13.10.2015 08:20 6,9 C 7,1 C 90 % 1011,9 hPa 0,0 mm 0,0 km/h (0 Bft) N-NO 22 5,4 C 0,0 km/h (0 Bft)
13.10.2015 08:25 7,0 C 7,2 C 90 % 1011,9 hPa 0,0 mm 0,0 km/h (0 Bft) N-NO 22 5,5 C 0,0 km/h (0 Bft)
13.10.2015 08:30 7,1 C 7,3 C 90 % 1011,6 hPa 0,0 mm 0,0 km/h (0 Bft) N 360 5,6 C 0,0 km/h (0 Bft)
13.10.2015 08:35 7,3 C 7,5 C 90 % 1011,6 hPa 0,0 mm 0,5 km/h (0 Bft) NO 45 5,8 C 2,8 km/h (1 Bft)
13.10.2015 08:41 7,4 C 7,6 C 90 % 1011,6 hPa 0,0 mm 1,3 km/h (1 Bft) W-SW 247 5,9 C 0,0 km/h (0 Bft)
13.10.2015 08:45 7,6 C 7,8 C 90 % 1011,6 hPa 0,0 mm 0,8 km/h (0 Bft) NO 45 6,1 C 0,0 km/h (0 Bft)
13.10.2015 08:50 7,7 C 7,9 C 90 % 1011,8 hPa 0,0 mm 0,0 km/h (0 Bft) N-NW 337 6,2 C 0,0 km/h (0 Bft)
13.10.2015 08:54 7,8 C 8,1 C 90 % 1011,8 hPa 0,0 mm 0,0 km/h (0 Bft) O-NO 67 6,3 C 0,0 km/h (0 Bft)
13.10.2015 08:56 7,8 C 8,1 C 90 % 1011,8 hPa 0,0 mm 0,0 km/h (0 Bft) O-NO 67 6,3 C 0,0 km/h (0 Bft)
13.10.2015 09:00 7,9 C 8,2 C 90 % 1011,8 hPa 0,0 mm 0,0 km/h (0 Bft) NW 315 6,4 C 0,0 km/h (0 Bft)
13.10.2015 09:05 8,1 C 8,4 C 90 % 1011,8 hPa 0,0 mm 0,0 km/h (0 Bft) O 90 6,6 C 0,0 km/h (0 Bft)
13.10.2015 09:10 8,2 C 8,5 C 90 % 1011,9 hPa 0,0 mm 0,0 km/h (0 Bft) O 90 6,7 C 0,0 km/h (0 Bft)
13.10.2015 09:15 8,3 C 8,8 C 90 % 1011,9 hPa 0,0 mm 0,0 km/h (0 Bft) NO 45 6,8 C 0,0 km/h (0 Bft)
13.10.2015 09:20 8,5 C 9,0 C 90 % 1011,9 hPa 0,0 mm 0,0 km/h (0 Bft) N-NW 337 7,0 C 0,0 km/h (0 Bft)
13.10.2015 09:25 8,5 C 9,0 C 90 % 1011,9 hPa 0,0 mm 0,0 km/h (0 Bft) W 270 7,0 C 0,0 km/h (0 Bft)
13.10.2015 09:30 8,5 C 8,9 C 90 % 1011,9 hPa 0,0 mm 0,5 km/h (0 Bft) NO 45 7,0 C 0,0 km/h (0 Bft)
13.10.2015 09:35 8,6 C 8,9 C 90 % 1011,9 hPa 0,0 mm 0,3 km/h (0 Bft) N-NW 337 7,1 C 0,0 km/h (0 Bft)
13.10.2015 09:40 8,6 C 9,1 C 90 % 1011,9 hPa 0,0 mm 0,0 km/h (0 Bft) N-NW 337 7,1 C 2,6 km/h (1 Bft)
13.10.2015 09:45 8,6 C 9,1 C 90 % 1011,9 hPa 0,0 mm 0,8 km/h (0 Bft) W-SW 247 7,1 C 0,0 km/h (0 Bft)
13.10.2015 09:50 8,8 C 9,3 C 90 % 1012,1 hPa 0,0 mm 0,8 km/h (0 Bft) W-NW 292 7,3 C 0,0 km/h (0 Bft)
13.10.2015 09:55 8,9 C 9,4 C 90 % 1012,1 hPa 0,0 mm 0,0 km/h (0 Bft) NW 315 7,4 C 0,0 km/h (0 Bft)
13.10.2015 10:00 8,9 C 9,5 C 90 % 1012,1 hPa 0,0 mm 0,0 km/h (0 Bft) N-NO 22 7,4 C 0,0 km/h (0 Bft)
13.10.2015 10:05 9,0 C 9,5 C 90 % 1012,1 hPa 0,0 mm 0,5 km/h (0 Bft) N-NO 22 7,4 C 0,0 km/h (0 Bft)
13.10.2015 10:10 9,1 C 9,6 C 90 % 1012,1 hPa 0,0 mm 0,5 km/h (0 Bft) NW 315 7,5 C 3,1 km/h (1 Bft)
13.10.2015 10:15 9,2 C 9,7 C 90 % 1012,1 hPa 0,0 mm 0,5 km/h (0 Bft) N 360 7,6 C 0,0 km/h (0 Bft)
13.10.2015 10:20 9,2 C 9,7 C 90 % 1012,1 hPa 0,0 mm 0,5 km/h (0 Bft) NW 315 7,6 C 0,0 km/h (0 Bft)
13.10.2015 10:25 9,3 C 9,9 C 90 % 1012,1 hPa 0,0 mm 0,0 km/h (0 Bft) NW 315 7,7 C 0,0 km/h (0 Bft)
13.10.2015 10:30 9,4 C 10,1 C 90 % 1011,9 hPa 0,0 mm 0,0 km/h (0 Bft) NW 315 7,8 C 0,0 km/h (0 Bft)
13.10.2015 10:35 9,4 C 10,0 C 90 % 1011,9 hPa 0,0 mm 1,6 km/h (1 Bft) N-NW 337 7,8 C 3,6 km/h (1 Bft)
13.10.2015 10:40 9,4 C 9,9 C 90 % 1011,9 hPa 0,0 mm 1,8 km/h (1 Bft) NW 315 7,8 C 0,0 km/h (0 Bft)
13.10.2015 10:45 9,5 C 10,0 C 90 % 1011,9 hPa 0,0 mm 0,8 km/h (0 Bft) NW 315 7,9 C 0,0 km/h (0 Bft)
13.10.2015 10:50 9,5 C 10,1 C 90 % 1012,1 hPa 0,0 mm 0,5 km/h (0 Bft) NW 315 7,9 C 3,9 km/h (1 Bft)
13.10.2015 10:55 9,4 C 10,0 C 90 % 1012,1 hPa 0,0 mm 0,8 km/h (0 Bft) O-NO 67 7,8 C 0,0 km/h (0 Bft)
13.10.2015 11:00 9,4 C 10,0 C 90 % 1012,1 hPa 0,0 mm 0,8 km/h (0 Bft) N-NW 337 7,8 C 0,0 km/h (0 Bft)
13.10.2015 11:05 9,5 C 10,1 C 90 % 1012,1 hPa 0,0 mm 0,3 km/h (0 Bft) W 270 7,9 C 0,0 km/h (0 Bft)
13.10.2015 11:10 9,5 C 10,1 C 90 % 1012,3 hPa 0,0 mm 0,3 km/h (0 Bft) N-NO 22 7,9 C 0,0 km/h (0 Bft)
13.10.2015 11:15 9,7 C 10,2 C 89 % 1012,3 hPa 0,0 mm 0,0 km/h (0 Bft) NW 315 8,0 C 0,0 km/h (0 Bft)
13.10.2015 11:20 9,7 C 10,2 C 89 % 1012,3 hPa 0,0 mm 0,3 km/h (0 Bft) W-NW 292 8,0 C 0,0 km/h (0 Bft)
13.10.2015 11:25 9,7 C 10,1 C 89 % 1012,3 hPa 0,0 mm 0,0 km/h (0 Bft) NW 315 8,0 C 2,6 km/h (1 Bft)
13.10.2015 11:30 9,7 C 10,1 C 89 % 1012,1 hPa 0,0 mm 0,5 km/h (0 Bft) NW 315 8,0 C 4,1 km/h (1 Bft)
13.10.2015 11:35 9,7 C 10,1 C 89 % 1012,1 hPa 0,0 mm 1,8 km/h (1 Bft) W-NW 292 8,0 C 2,6 km/h (1 Bft)
13.10.2015 11:40 9,7 C 10,2 C 89 % 1012,1 hPa 0,0 mm 2,3 km/h (1 Bft) W 270 8,0 C 4,4 km/h (1 Bft)
13.10.2015 11:45 9,8 C 10,3 C 89 % 1012,1 hPa 0,0 mm 1,6 km/h (1 Bft) W-NW 292 8,1 C 4,7 km/h (1 Bft)
13.10.2015 11:50 9,7 C 10,2 C 89 % 1012,2 hPa 0,0 mm 1,6 km/h (1 Bft) W-NW 292 8,0 C 0,0 km/h (0 Bft)
13.10.2015 11:55 9,8 C 10,3 C 89 % 1012,2 hPa 0,0 mm 0,8 km/h (0 Bft) NW 315 8,1 C 0,0 km/h (0 Bft)
13.10.2015 12:01 9,8 C 10,3 C 89 % 1012,2 hPa 0,0 mm 1,3 km/h (1 Bft) W-SW 247 8,1 C 6,0 km/h (2 Bft)
13.10.2015 12:05 9,8 C 10,3 C 89 % 1012,2 hPa 0,0 mm 2,6 km/h (1 Bft) N-NW 337 8,1 C 3,4 km/h (1 Bft)
13.10.2015 12:10 9,8 C 10,2 C 89 % 1012,0 hPa 0,0 mm 3,4 km/h (1 Bft) W-NW 292 8,1 C 4,1 km/h (1 Bft)
13.10.2015 12:15 9,9 C 10,3 C 89 % 1012,0 hPa 0,0 mm 3,1 km/h (1 Bft) N-NW 337 8,2 C 3,4 km/h (1 Bft)
13.10.2015 12:20 10,0 C 10,5 C 89 % 1012,0 hPa 0,0 mm 1,6 km/h (1 Bft) N-NW 337 8,3 C 0,0 km/h (0 Bft)
13.10.2015 12:25 10,2 C 10,9 C 89 % 1012,0 hPa 0,0 mm 0,5 km/h (0 Bft) SW 225 8,5 C 0,0 km/h (0 Bft)
13.10.2015 12:30 10,3 C 11,1 C 89 % 1012,1 hPa 0,0 mm 0,5 km/h (0 Bft) NW 315 8,6 C 0,0 km/h (0 Bft)
13.10.2015 12:35 10,3 C 11,4 C 89 % 1012,1 hPa 0,0 mm 0,5 km/h (0 Bft) N-NW 337 8,6 C 0,0 km/h (0 Bft)
13.10.2015 12:40 10,4 C 11,8 C 89 % 1012,1 hPa 0,0 mm 1,0 km/h (0 Bft) NW 315 8,7 C 0,0 km/h (0 Bft)
13.10.2015 12:46 10,6 C 12,2 C 89 % 1012,1 hPa 0,0 mm 1,0 km/h (0 Bft) N-NO 22 8,9 C 0,0 km/h (0 Bft)
13.10.2015 12:50 10,7 C 12,3 C 89 % 1012,2 hPa 0,0 mm 1,0 km/h (0 Bft) N-NW 337 9,0 C 0,0 km/h (0 Bft)
13.10.2015 12:55 10,8 C 12,3 C 88 % 1012,2 hPa 0,0 mm 1,0 km/h (0 Bft) O-NO 67 8,9 C 0,0 km/h (0 Bft)
13.10.2015 13:00 10,8 C 12,3 C 88 % 1012,2 hPa 0,0 mm 0,5 km/h (0 Bft) N-NO 22 8,9 C 0,0 km/h (0 Bft)
13.10.2015 13:05 10,7 C 12,2 C 88 % 1012,2 hPa 0,0 mm 0,3 km/h (0 Bft) NO 45 8,8 C 0,0 km/h (0 Bft)
13.10.2015 13:10 10,6 C 12,2 C 88 % 1012,2 hPa 0,0 mm 0,5 km/h (0 Bft) NW 315 8,7 C 0,0 km/h (0 Bft)
13.10.2015 13:15 10,8 C 12,5 C 88 % 1012,2 hPa 0,0 mm 0,0 km/h (0 Bft) W-NW 292 8,9 C 0,0 km/h (0 Bft)
13.10.2015 13:20 11,0 C 12,9 C 88 % 1012,2 hPa 0,0 mm 0,0 km/h (0 Bft) N-NW 337 9,1 C 3,1 km/h (1 Bft)
13.10.2015 13:25 11,1 C 13,2 C 88 % 1012,2 hPa 0,0 mm 1,0 km/h (0 Bft) NW 315 9,2 C 4,1 km/h (1 Bft)
13.10.2015 13:30 11,1 C 13,2 C 88 % 1012,2 hPa 0,0 mm 1,6 km/h (1 Bft) NW 315 9,2 C 0,0 km/h (0 Bft)
13.10.2015 13:35 11,3 C 13,5 C 88 % 1012,2 hPa 0,0 mm 0,8 km/h (0 Bft) N-NW 337 9,4 C 0,0 km/h (0 Bft)
13.10.2015 13:40 11,3 C 13,6 C 88 % 1012,2 hPa 0,0 mm 0,0 km/h (0 Bft) N-NO 22 9,4 C 0,0 km/h (0 Bft)
13.10.2015 13:45 11,3 C 13,6 C 88 % 1012,2 hPa 0,0 mm 0,3 km/h (0 Bft) NW 315 9,4 C 5,2 km/h (1 Bft)
13.10.2015 13:50 11,4 C 13,3 C 87 % 1012,1 hPa 0,0 mm 1,3 km/h (1 Bft) NW 315 9,3 C 2,6 km/h (1 Bft)
13.10.2015 13:55 11,4 C 12,9 C 87 % 1012,1 hPa 0,0 mm 3,1 km/h (1 Bft) NW 315 9,3 C 4,4 km/h (1 Bft)
13.10.2015 14:00 11,4 C 12,8 C 87 % 1012,1 hPa 0,0 mm 3,4 km/h (1 Bft) N-NW 337 9,3 C 6,7 km/h (2 Bft)
13.10.2015 14:06 11,5 C 12,7 C 87 % 1012,1 hPa 0,0 mm 3,9 km/h (1 Bft) N-NO 22 9,4 C 5,4 km/h (1 Bft)
13.10.2015 14:10 11,4 C 12,7 C 87 % 1012,1 hPa 0,0 mm 4,1 km/h (1 Bft) N-NO 22 9,3 C 7,0 km/h (2 Bft)
13.10.2015 14:15 11,3 C 12,7 C 87 % 1012,1 hPa 0,0 mm 3,6 km/h (1 Bft) N-NO 22 9,2 C 3,1 km/h (1 Bft)
13.10.2015 14:20 11,3 C 12,7 C 87 % 1012,1 hPa 0,0 mm 1,8 km/h (1 Bft) NO 45 9,2 C 7,8 km/h (2 Bft)
13.10.2015 14:25 11,3 C 12,7 C 86 % 1012,1 hPa 0,0 mm 0,5 km/h (0 Bft) N 360 9,0 C 0,0 km/h (0 Bft)
13.10.2015 14:30 11,3 C 12,6 C 86 % 1012,2 hPa 0,0 mm 1,0 km/h (0 Bft) N-NW 337 9,0 C 0,0 km/h (0 Bft)
13.10.2015 14:35 11,3 C 12,4 C 86 % 1012,2 hPa 0,0 mm 1,0 km/h (0 Bft) N-NW 337 9,0 C 4,4 km/h (1 Bft)
13.10.2015 14:40 11,3 C 12,2 C 86 % 1012,2 hPa 0,0 mm 1,6 km/h (1 Bft) N-NW 337 9,0 C 3,4 km/h (1 Bft)
13.10.2015 14:46 11,1 C 11,5 C 86 % 1012,2 hPa 0,0 mm 2,1 km/h (1 Bft) N-NO 22 8,8 C 3,4 km/h (1 Bft)
13.10.2015 14:50 11,1 C 11,1 C 86 % 1012,2 hPa 0,0 mm 2,8 km/h (1 Bft) N-NO 22 8,8 C 6,7 km/h (2 Bft)
13.10.2015 14:55 11,0 C 10,9 C 86 % 1012,2 hPa 0,0 mm 4,1 km/h (1 Bft) O-NO 67 8,7 C 5,4 km/h (1 Bft)
13.10.2015 14:57 11,0 C 10,9 C 86 % 1012,2 hPa 0,0 mm 4,1 km/h (1 Bft) O-NO 67 8,7 C 5,4 km/h (1 Bft)
13.10.2015 15:00 10,9 C 10,7 C 86 % 1012,2 hPa 0,0 mm 3,9 km/h (1 Bft) O-SO 112 8,7 C 4,4 km/h (1 Bft)
13.10.2015 15:05 10,7 C 10,6 C 86 % 1012,2 hPa 0,0 mm 4,4 km/h (1 Bft) O-NO 67 8,5 C 7,8 km/h (2 Bft)
13.10.2015 15:10 10,5 C 10,5 C 86 % 1012,2 hPa 0,0 mm 5,7 km/h (1 Bft) NO 45 8,3 C 10,4 km/h (2 Bft)
13.10.2015 15:15 10,4 C 10,4 C 86 % 1012,2 hPa 0,0 mm 6,2 km/h (2 Bft) O-NO 67 8,2 C 9,3 km/h (2 Bft)
13.10.2015 15:20 10,3 C 10,2 C 86 % 1012,2 hPa 0,0 mm 6,0 km/h (2 Bft) O 90 8,1 C 6,5 km/h (2 Bft)
13.10.2015 15:25 10,1 C 10,2 C 86 % 1012,2 hPa 0,0 mm 4,7 km/h (1 Bft) O-NO 67 7,9 C 3,4 km/h (1 Bft)
13.10.2015 15:31 10,1 C 10,3 C 86 % 1012,1 hPa 0,0 mm 3,9 km/h (1 Bft) O-SO 112 7,9 C 2,8 km/h (1 Bft)
13.10.2015 15:35 10,0 C 10,4 C 86 % 1012,1 hPa 0,0 mm 3,4 km/h (1 Bft) NO 45 7,8 C 3,1 km/h (1 Bft)
13.10.2015 15:42 9,9 C 10,3 C 87 % 1012,1 hPa 0,0 mm 2,6 km/h (1 Bft) O-SO 112 7,8 C 3,6 km/h (1 Bft)
13.10.2015 15:45 9,9 C 10,1 C 87 % 1012,1 hPa 0,0 mm 2,8 km/h (1 Bft) N-NW 337 7,8 C 4,7 km/h (1 Bft)
13.10.2015 15:50 9,8 C 10,0 C 87 % 1012,1 hPa 0,0 mm 4,1 km/h (1 Bft) O-NO 67 7,7 C 6,5 km/h (2 Bft)
13.10.2015 15:55 9,7 C 9,9 C 87 % 1012,1 hPa 0,0 mm 2,6 km/h (1 Bft) O 90 7,6 C 0,0 km/h (0 Bft)
13.10.2015 16:00 9,6 C 9,8 C 87 % 1012,1 hPa 0,0 mm 2,3 km/h (1 Bft) SW 225 7,5 C 7,3 km/h (2 Bft)
13.10.2015 16:05 9,5 C 9,7 C 87 % 1012,1 hPa 0,0 mm 3,1 km/h (1 Bft) N-NO 22 7,4 C 0,0 km/h (0 Bft)
13.10.2015 16:10 9,5 C 9,7 C 87 % 1011,9 hPa 0,0 mm 2,3 km/h (1 Bft) NO 45 7,4 C 3,6 km/h (1 Bft)
13.10.2015 16:15 9,5 C 9,7 C 87 % 1011,9 hPa 0,0 mm 3,1 km/h (1 Bft) O-NO 67 7,4 C 4,9 km/h (1 Bft)
13.10.2015 16:21 9,4 C 9,7 C 87 % 1011,9 hPa 0,0 mm 3,9 km/h (1 Bft) O-NO 67 7,3 C 2,8 km/h (1 Bft)
13.10.2015 16:25 9,5 C 9,7 C 87 % 1011,9 hPa 0,0 mm 2,6 km/h (1 Bft) O-NO 67 7,4 C 5,7 km/h (1 Bft)
13.10.2015 16:30 9,4 C 9,6 C 87 % 1012,0 hPa 0,0 mm 2,3 km/h (1 Bft) O-NO 67 7,3 C 4,7 km/h (1 Bft)
13.10.2015 16:35 9,4 C 9,5 C 87 % 1012,0 hPa 0,0 mm 2,6 km/h (1 Bft) O-NO 67 7,3 C 3,6 km/h (1 Bft)
13.10.2015 16:40 9,4 C 9,5 C 87 % 1012,0 hPa 0,0 mm 2,3 km/h (1 Bft) NO 45 7,3 C 2,6 km/h (1 Bft)
13.10.2015 16:45 9,3 C 9,4 C 87 % 1012,0 hPa 0,0 mm 2,3 km/h (1 Bft) O-NO 67 7,2 C 0,0 km/h (0 Bft)
13.10.2015 16:50 9,3 C 9,4 C 87 % 1012,1 hPa 0,0 mm 1,8 km/h (1 Bft) O 90 7,2 C 0,0 km/h (0 Bft)
13.10.2015 16:55 9,3 C 9,3 C 87 % 1012,1 hPa 0,0 mm 2,3 km/h (1 Bft) NO 45 7,2 C 7,0 km/h (2 Bft)
13.10.2015 17:00 9,2 C 9,3 C 87 % 1012,1 hPa 0,0 mm 3,4 km/h (1 Bft) O-SO 112 7,2 C 3,9 km/h (1 Bft)
13.10.2015 17:05 9,2 C 9,2 C 87 % 1012,1 hPa 0,0 mm 2,3 km/h (1 Bft) O-NO 67 7,2 C 3,6 km/h (1 Bft)
13.10.2015 17:10 9,2 C 9,2 C 87 % 1011,8 hPa 0,0 mm 1,8 km/h (1 Bft) O-SO 112 7,2 C 0,0 km/h (0 Bft)
13.10.2015 17:15 9,1 C 9,2 C 87 % 1011,8 hPa 0,0 mm 2,8 km/h (1 Bft) O-NO 67 7,1 C 3,6 km/h (1 Bft)
13.10.2015 17:20 9,1 C 9,1 C 87 % 1011,8 hPa 0,0 mm 3,1 km/h (1 Bft) NO 45 7,1 C 3,9 km/h (1 Bft)
13.10.2015 17:25 9,1 C 9,1 C 87 % 1011,8 hPa 0,0 mm 3,4 km/h (1 Bft) NO 45 7,1 C 5,2 km/h (1 Bft)
13.10.2015 17:30 9,0 C 9,0 C 87 % 1011,7 hPa 0,0 mm 3,6 km/h (1 Bft) O-NO 67 7,0 C 2,6 km/h (1 Bft)
13.10.2015 17:35 9,0 C 9,0 C 87 % 1011,7 hPa 0,0 mm 3,6 km/h (1 Bft) NO 45 7,0 C 6,5 km/h (2 Bft)
13.10.2015 17:40 9,0 C 8,9 C 89 % 1011,7 hPa 0,0 mm 2,6 km/h (1 Bft) NO 45 7,3 C 2,6 km/h (1 Bft)
13.10.2015 17:45 9,0 C 8,9 C 89 % 1011,7 hPa 0,0 mm 1,3 km/h (1 Bft) O 90 7,3 C 2,8 km/h (1 Bft)
13.10.2015 17:50 8,9 C 8,9 C 88 % 1011,8 hPa 0,0 mm 0,5 km/h (0 Bft) O-NO 67 7,0 C 0,0 km/h (0 Bft)
13.10.2015 17:55 8,9 C 8,9 C 88 % 1011,8 hPa 0,0 mm 0,0 km/h (0 Bft) O-NO 67 7,0 C 0,0 km/h (0 Bft)
13.10.2015 18:00 8,9 C 8,9 C 88 % 1011,8 hPa 0,0 mm 0,0 km/h (0 Bft) O-NO 67 7,0 C 0,0 km/h (0 Bft)
13.10.2015 18:05 8,9 C 8,8 C 90 % 1011,8 hPa 0,0 mm 0,0 km/h (0 Bft) O-NO 67 7,4 C 0,0 km/h (0 Bft)
13.10.2015 18:10 8,9 C 8,8 C 90 % 1011,8 hPa 0,0 mm 0,0 km/h (0 Bft) O-NO 67 7,4 C 0,0 km/h (0 Bft)
13.10.2015 18:15 8,9 C 8,8 C 90 % 1011,8 hPa 0,7 mm 0,0 km/h (0 Bft) NO 45 7,4 C 3,1 km/h (1 Bft)
13.10.2015 18:20 8,9 C 8,8 C 90 % 1011,8 hPa 0,0 mm 0,3 km/h (0 Bft) O-NO 67 7,4 C 0,0 km/h (0 Bft)
13.10.2015 18:25 8,9 C 8,8 C 90 % 1011,8 hPa 0,0 mm 0,3 km/h (0 Bft) NO 45 7,4 C 0,0 km/h (0 Bft)
13.10.2015 18:30 8,9 C 8,8 C 90 % 1012,0 hPa 0,0 mm 0,0 km/h (0 Bft) O-NO 67 7,4 C 0,0 km/h (0 Bft)
13.10.2015 18:35 8,8 C 8,8 C 88 % 1012,0 hPa 0,7 mm 0,5 km/h (0 Bft) N-NO 22 6,9 C 3,1 km/h (1 Bft)
13.10.2015 18:40 8,8 C 8,7 C 90 % 1012,0 hPa 0,0 mm 0,5 km/h (0 Bft) NO 45 7,3 C 0,0 km/h (0 Bft)
13.10.2015 18:45 8,8 C 8,7 C 90 % 1012,0 hPa 0,0 mm 0,8 km/h (0 Bft) O-NO 67 7,3 C 2,6 km/h (1 Bft)
13.10.2015 18:50 8,7 C 8,6 C 90 % 1011,8 hPa 0,0 mm 0,8 km/h (0 Bft) NO 45 7,2 C 0,0 km/h (0 Bft)
13.10.2015 18:55 8,7 C 8,6 C 90 % 1011,8 hPa 0,0 mm 0,5 km/h (0 Bft) O-NO 67 7,2 C 0,0 km/h (0 Bft)
13.10.2015 19:00 8,6 C 8,6 C 90 % 1011,8 hPa 0,7 mm 1,0 km/h (0 Bft) O-NO 67 7,1 C 4,9 km/h (1 Bft)
13.10.2015 19:05 8,6 C 8,5 C 90 % 1011,8 hPa 0,0 mm 2,1 km/h (1 Bft) O-NO 67 7,1 C 3,4 km/h (1 Bft)
13.10.2015 19:10 8,6 C 8,5 C 90 % 1011,9 hPa 0,0 mm 3,1 km/h (1 Bft) O-NO 67 7,1 C 6,2 km/h (2 Bft)
13.10.2015 19:15 8,6 C 8,5 C 91 % 1011,9 hPa 0,0 mm 2,8 km/h (1 Bft) N-NW 337 7,2 C 0,0 km/h (0 Bft)
13.10.2015 19:20 8,6 C 8,5 C 91 % 1011,9 hPa 0,0 mm 2,8 km/h (1 Bft) N-NW 337 7,2 C 2,8 km/h (1 Bft)
13.10.2015 19:25 8,5 C 8,4 C 91 % 1011,9 hPa 0,0 mm 1,8 km/h (1 Bft) NO 45 7,1 C 0,0 km/h (0 Bft)
13.10.2015 19:30 8,5 C 8,4 C 91 % 1011,9 hPa 0,0 mm 0,8 km/h (0 Bft) O-NO 67 7,1 C 0,0 km/h (0 Bft)
13.10.2015 19:35 8,4 C 8,4 C 91 % 1011,9 hPa 0,0 mm 0,5 km/h (0 Bft) N-NO 22 7,0 C 4,7 km/h (1 Bft)
13.10.2015 19:40 8,4 C 8,4 C 88 % 1011,9 hPa 0,0 mm 0,8 km/h (0 Bft) NW 315 6,5 C 0,0 km/h (0 Bft)
13.10.2015 19:44 8,4 C 8,3 C 91 % 1011,9 hPa 0,7 mm 0,5 km/h (0 Bft) N-NO 22 7,0 C 0,0 km/h (0 Bft)
13.10.2015 19:49 8,4 C 8,3 C 91 % 1012,0 hPa 0,0 mm 0,0 km/h (0 Bft) NW 315 7,0 C 0,0 km/h (0 Bft)
13.10.2015 19:51 8,4 C 8,3 C 91 % 1012,0 hPa 0,0 mm 0,0 km/h (0 Bft) NW 315 7,0 C 0,0 km/h (0 Bft)
13.10.2015 19:55 8,3 C 8,2 C 91 % 1012,0 hPa 0,0 mm 0,3 km/h (0 Bft) NW 315 6,9 C 0,0 km/h (0 Bft)
13.10.2015 20:00 8,3 C 8,2 C 91 % 1012,0 hPa 0,0 mm 0,3 km/h (0 Bft) W-NW 292 6,9 C 0,0 km/h (0 Bft)
13.10.2015 20:05 8,2 C 8,2 C 88 % 1012,0 hPa 0,0 mm 0,3 km/h (0 Bft) N-NO 22 6,3 C 3,1 km/h (1 Bft)
13.10.2015 20:10 8,2 C 8,1 C 91 % 1011,8 hPa 0,0 mm 0,3 km/h (0 Bft) N-NO 22 6,8 C 2,6 km/h (1 Bft)
13.10.2015 20:15 8,1 C 8,1 C 91 % 1011,8 hPa 0,0 mm 0,3 km/h (0 Bft) SO 135 6,7 C 0,0 km/h (0 Bft)
13.10.2015 20:20 8,1 C 8,0 C 91 % 1011,8 hPa 0,0 mm 0,0 km/h (0 Bft) O-NO 67 6,7 C 0,0 km/h (0 Bft)
13.10.2015 20:25 8,1 C 8,0 C 91 % 1011,8 hPa 0,7 mm 0,0 km/h (0 Bft) O 90 6,7 C 0,0 km/h (0 Bft)
13.10.2015 20:30 8,1 C 8,0 C 91 % 1011,7 hPa 0,0 mm 0,0 km/h (0 Bft) O-NO 67 6,7 C 0,0 km/h (0 Bft)
13.10.2015 20:35 8,1 C 8,0 C 91 % 1011,7 hPa 0,0 mm 0,0 km/h (0 Bft) N-NO 22 6,7 C 0,0 km/h (0 Bft)
13.10.2015 20:40 8,1 C 8,0 C 91 % 1011,7 hPa 0,0 mm 0,3 km/h (0 Bft) O-NO 67 6,7 C 0,0 km/h (0 Bft)
13.10.2015 20:45 8,0 C 7,9 C 91 % 1011,7 hPa 0,0 mm 1,8 km/h (1 Bft) O-NO 67 6,6 C 4,9 km/h (1 Bft)
13.10.2015 20:50 7,9 C 7,8 C 91 % 1011,5 hPa 0,0 mm 3,1 km/h (1 Bft) O-NO 67 6,5 C 4,9 km/h (1 Bft)
13.10.2015 20:55 7,8 C 7,8 C 91 % 1011,5 hPa 0,7 mm 4,1 km/h (1 Bft) O-NO 67 6,4 C 6,2 km/h (2 Bft)
13.10.2015 20:58 7,8 C 7,8 C 91 % 1011,5 hPa 0,0 mm 4,1 km/h (1 Bft) O-NO 67 6,4 C 6,2 km/h (2 Bft)
13.10.2015 21:00 7,7 C 7,6 C 91 % 1011,5 hPa 0,0 mm 4,4 km/h (1 Bft) O 90 6,3 C 4,7 km/h (1 Bft)
13.10.2015 21:05 7,6 C 7,5 C 91 % 1011,5 hPa 0,0 mm 3,4 km/h (1 Bft) O-NO 67 6,2 C 0,0 km/h (0 Bft)
13.10.2015 21:10 7,6 C 7,5 C 91 % 1011,6 hPa 0,0 mm 2,6 km/h (1 Bft) NO 45 6,2 C 4,4 km/h (1 Bft)
13.10.2015 21:15 7,5 C 7,4 C 91 % 1011,6 hPa 0,0 mm 2,1 km/h (1 Bft) NO 45 6,1 C 3,6 km/h (1 Bft)
13.10.2015 21:20 7,5 C 7,4 C 91 % 1011,6 hPa 0,0 mm 2,1 km/h (1 Bft) O 90 6,1 C 4,7 km/h (1 Bft)
13.10.2015 21:25 7,4 C 7,3 C 91 % 1011,6 hPa 0,0 mm 2,1 km/h (1 Bft) O-NO 67 6,0 C 0,0 km/h (0 Bft)
13.10.2015 21:30 7,4 C 7,3 C 91 % 1011,5 hPa 0,0 mm 1,8 km/h (1 Bft) O-NO 67 6,0 C 0,0 km/h (0 Bft)
13.10.2015 21:35 7,4 C 7,3 C 91 % 1011,5 hPa 0,7 mm 1,0 km/h (0 Bft) O-SO 112 6,0 C 3,1 km/h (1 Bft)
13.10.2015 21:40 7,3 C 7,2 C 91 % 1011,5 hPa 0,0 mm 0,8 km/h (0 Bft) O-NO 67 5,9 C 0,0 km/h (0 Bft)
13.10.2015 21:45 7,3 C 7,2 C 91 % 1011,5 hPa 0,0 mm 0,3 km/h (0 Bft) O 90 5,9 C 0,0 km/h (0 Bft)
13.10.2015 21:50 7,2 C 7,1 C 91 % 1011,2 hPa 0,7 mm 0,0 km/h (0 Bft) O-NO 67 5,8 C 0,0 km/h (0 Bft)
13.10.2015 21:55 7,2 C 7,1 C 91 % 1011,2 hPa 0,0 mm 0,0 km/h (0 Bft) SO 135 5,8 C 0,0 km/h (0 Bft)
13.10.2015 22:00 7,2 C 7,1 C 91 % 1011,2 hPa 0,0 mm 0,0 km/h (0 Bft) S 180 5,8 C 0,0 km/h (0 Bft)
13.10.2015 22:05 7,2 C 7,1 C 91 % 1011,2 hPa 0,0 mm 0,0 km/h (0 Bft) S 180 5,8 C 0,0 km/h (0 Bft)
13.10.2015 22:10 7,2 C 7,1 C 91 % 1011,6 hPa 0,0 mm 0,0 km/h (0 Bft) W-NW 292 5,8 C 0,0 km/h (0 Bft)
13.10.2015 22:15 7,2 C 7,1 C 91 % 1011,6 hPa 0,7 mm 0,3 km/h (0 Bft) NW 315 5,8 C 2,6 km/h (1 Bft)
13.10.2015 22:20 7,2 C 7,1 C 91 % 1011,6 hPa 0,0 mm 0,3 km/h (0 Bft) NW 315 5,8 C 0,0 km/h (0 Bft)
13.10.2015 22:25 7,2 C 7,1 C 91 % 1011,6 hPa 0,7 mm 1,8 km/h (1 Bft) NW 315 5,8 C 4,9 km/h (1 Bft)
13.10.2015 22:30 7,1 C 7,1 C 91 % 1011,9 hPa 0,0 mm 3,1 km/h (1 Bft) N-NO 22 5,7 C 4,4 km/h (1 Bft)
13.10.2015 22:35 7,1 C 7,1 C 89 % 1011,9 hPa 0,7 mm 3,1 km/h (1 Bft) W-SW 247 5,4 C 0,0 km/h (0 Bft)
13.10.2015 22:40 7,1 C 7,0 C 91 % 1011,9 hPa 0,0 mm 2,6 km/h (1 Bft) W 270 5,7 C 3,6 km/h (1 Bft)
13.10.2015 22:45 7,0 C 6,9 C 91 % 1011,9 hPa 0,0 mm 1,8 km/h (1 Bft) W 270 5,6 C 0,0 km/h (0 Bft)
13.10.2015 22:50 7,1 C 7,0 C 91 % 1012,0 hPa 0,0 mm 0,8 km/h (0 Bft) W 270 5,7 C 0,0 km/h (0 Bft)
13.10.2015 22:55 7,1 C 7,0 C 91 % 1012,0 hPa 0,7 mm 0,3 km/h (0 Bft) W-SW 247 5,7 C 0,0 km/h (0 Bft)
13.10.2015 23:00 7,1 C 7,0 C 92 % 1012,0 hPa 0,0 mm 1,0 km/h (0 Bft) W-NW 292 5,9 C 9,6 km/h (2 Bft)
13.10.2015 23:05 7,1 C 7,0 C 92 % 1012,0 hPa 0,0 mm 4,1 km/h (1 Bft) W-SW 247 5,9 C 6,7 km/h (2 Bft)
13.10.2015 23:12 7,1 C 7,0 C 92 % 1012,2 hPa 0,7 mm 5,7 km/h (1 Bft) NW 315 5,9 C 14,8 km/h (3 Bft)
13.10.2015 23:15 7,0 C 6,8 C 92 % 1012,2 hPa 0,0 mm 6,7 km/h (2 Bft) NW 315 5,8 C 7,3 km/h (2 Bft)
13.10.2015 23:20 7,0 C 6,7 C 92 % 1012,2 hPa 0,0 mm 7,5 km/h (2 Bft) O 90 5,8 C 14,8 km/h (3 Bft)
13.10.2015 23:25 7,0 C 6,8 C 92 % 1012,2 hPa 0,0 mm 7,3 km/h (2 Bft) SW 225 5,8 C 13,5 km/h (3 Bft)
13.10.2015 23:30 6,9 C 6,7 C 92 % 1012,5 hPa 0,0 mm 7,3 km/h (2 Bft) W-NW 292 5,7 C 16,6 km/h (3 Bft)
13.10.2015 23:35 6,9 C 6,6 C 92 % 1012,5 hPa 0,7 mm 7,8 km/h (2 Bft) W 270 5,7 C 11,7 km/h (2 Bft)
13.10.2015 23:40 6,8 C 6,4 C 92 % 1012,5 hPa 0,0 mm 8,5 km/h (2 Bft) W 270 5,6 C 21,8 km/h (4 Bft)
13.10.2015 23:45 6,8 C 6,4 C 92 % 1012,5 hPa 0,0 mm 8,3 km/h (2 Bft) W 270 5,6 C 2,8 km/h (1 Bft)
13.10.2015 23:50 6,7 C 6,3 C 92 % 1012,6 hPa 0,7 mm 8,8 km/h (2 Bft) W-NW 292 5,5 C 14,0 km/h (3 Bft)
13.10.2015 23:55 6,6 C 6,2 C 92 % 1012,6 hPa 0,0 mm 9,1 km/h (2 Bft) W-SW 247 5,4 C 11,1 km/h (2 Bft)
_ Min-Zeit 02:40 02:40 15:35 22:05 - 22:10 - - 02:40 22:55
Minimum _ 4,2 C 4,1 C 86 % 1011,2 hPa - 0,0 km/h (0 Bft) - - 2,7 C 0,0 km/h (0 Bft)
_ Max-Zeit 14:06 13:45 07:15 00:45 23:50 23:55 - - 14:06 23:40
Maximum _ 11,5 C 13,6 C 94 % 1013,6 hPa 0,7 mm 9,1 km/h
W-SW (2 Bft)
- - 9,4 C 21,8 km/h
W (4 Bft)
Durchschnitt _ 7,5 C 7,8 C 90 % 1012,2 hPa #11,0 mm 1,2 km/h (1 Bft) O-NO - 6,0 C 1,8 km/h (1 Bft)